CST,Max TemperatureF,Mean TemperatureF,Min TemperatureF,Max Dew PointF,MeanDew PointF,Min DewpointF,Max Humidity, Mean Humidity, Min Humidity, Max Sea Level PressureIn, Mean Sea Level PressureIn, Min Sea Level PressureIn, Max VisibilityMiles, Mean VisibilityMiles, Min VisibilityMiles, Max Wind SpeedMPH, Mean Wind SpeedMPH, Max Gust SpeedMPH,PrecipitationIn, CloudCover, Events, WindDirDegrees
2013-1-1,68,64,55,61,49,37,78,58,39,30.18,30.04,29.91,8,6,5,20,10,,0.00,8,,321
2013-1-2,51,48,46,50,49,43,100,97,76,30.27,30.22,30.12,6,3,1,14,9,,0.01,8,Rain,336
2013-1-3,48,46,44,48,46,45,100,97,87,30.35,30.29,30.21,5,3,0,14,7,,0.00,8,Fog,331
2013-1-4,46,44,42,45,45,43,100,100,96,30.47,30.36,30.29,6,3,0,16,12,,0.12,8,Rain,329
2013-1-5,53,47,41,48,44,43,96,82,67,30.40,30.29,30.21,6,4,4,14,11,,0.00,8,Rain,326
2013-1-6,67,56,46,51,44,39,98,60,34,30.39,30.31,30.22,8,6,4,20,8,,0.00,6,Rain-Thunderstorm,333
2013-1-7,73,60,48,53,46,41,100,57,32,30.29,30.14,30.02,8,7,6,10,3,,0.00,7,,138
2013-1-8,70,62,54,65,56,50,100,74,60,29.99,29.88,29.77,8,6,4,14,8,23,0.04,7,Rain,169
2013-1-9,66,62,57,64,60,54,100,87,64,30.14,29.98,29.90,6,5,0,7,5,,0.51,7,Rain-Thunderstorm,338
2013-1-10,78,66,53,59,54,46,100,66,36,30.18,30.08,30.00,10,8,4,8,3,,0.00,3,,6
2013-1-11,84,67,50,63,58,52,100,53,35,30.03,29.89,29.80,8,7,6,17,8,25,0.00,6,,155
2013-1-12,86,70,54,68,64,62,100,67,45,29.91,29.78,29.68,8,6,4,17,9,32,0.00,6,,174
2013-1-13,71,66,60,66,33,21,94,32,17,30.10,30.01,29.82,10,7,4,20,13,28,0.00,6,,336
2013-1-14,67,56,44,44,31,25,72,35,22,30.18,30.09,29.99,8,7,4,8,5,,0.00,7,,354
2013-1-15,61,52,44,47,41,36,99,61,39,30.27,30.07,29.98,8,6,4,9,6,,0.00,7,,345
2013-1-16,57,52,45,40,30,21,78,43,26,30.45,30.35,30.23,8,7,4,18,10,17,0.00,7,,329
2013-1-17,70,53,36,43,28,18,94,39,11,30.58,30.46,30.37,10,8,4,14,4,,0.00,5,,353
2013-1-18,70,56,41,42,31,27,75,37,19,30.92,30.46,30.32,10,8,4,14,5,,0.00,3,,344
2013-1-19,77,59,41,50,40,30,100,51,18,30.35,30.24,30.13,10,8,4,18,4,,0.00,2,,168
2013-1-20,82,63,44,52,44,37,100,50,22,30.30,30.17,30.06,8,6,4,46,5,,0.00,6,,49
2013-1-21,78,66,53,59,53,48,96,61,36,30.24,30.12,29.57,6,6,4,8,2,,0.00,7,,314
2013-1-22,80,64,49,64,57,50,100,74,42,30.32,30.22,30.12,8,5,2,20,4,,1.06,5,Rain,53
2013-1-23,76,67,58,66,60,55,100,75,53,30.37,30.28,30.23,6,5,4,10,4,,0.00,5,,173
2013-1-24,85,69,53,61,54,48,100,64,29,30.35,30.23,30.13,10,6,0,14,3,,0.00,0,Fog,190
2013-1-25,86,69,52,62,58,52,100,62,34,30.20,30.10,30.01,8,6,4,20,6,23,0.00,0,,169
2013-1-26,86,69,52,61,53,41,98,54,23,30.17,30.07,29.97,6,6,4,15,6,22,0.00,1,,169
2013-1-27,90,70,51,64,57,48,99,58,27,30.12,30.00,29.90,8,6,4,18,7,25,0.00,1,,156
2013-1-28,90,72,55,68,62,57,99,63,32,30.07,29.97,29.89,6,5,4,16,6,26,0.00,0,,167
2013-1-29,90,74,59,66,62,57,100,58,30,29.91,29.78,29.65,6,5,4,18,7,29,0.00,1,,177
2013-1-30,71,62,53,58,25,16,79,22,11,30.34,30.09,29.78,8,6,4,22,9,21,0.00,3,,349
2013-1-31,75,58,41,48,35,25,79,38,21,30.39,30.27,30.17,8,7,4,13,4,,0.00,5,,160